COSMOS 2251 DEB, 40238

Orbit data source: Space-Track

COSMOS 2251 DEB, 40238 is space debris in LEO originally from a launch on Wed, 16 Jun 1993 UTC launched from the Plesetsk Missile And Space Complex (PKMTR). The debris from Iridium 33, an American commercial communications satellite, has been tracked extensively since its accidental collision with the defunct Russian satellite Cosmos 2251 in 2009. This event, occurring at high speed in low Earth orbit (LEO), generated thousands of pieces of space debris, significantly increasing the risk of further collisions. The Iridium 33 debris cloud has impacted space traffic management and orbital debris mitigation strategies, making it a subject of ongoing study in space situational awareness.

Loading next visibility...
Identifier
40238, 1993-036BVT
Orbit
LEO
Country
Flag of CISCIS
Related business
Manufacturer
Unknown
Mission
Spacecraft
Bus & Motor
Unknown
Mass
Unknown
Launch date (UTC)
1993-06-16 (33 years ago)
Launch vehicle
Unknown
Launch site
Plesetsk Missile And Space Complex (PKMTR)
Object type
Payload
Rocket body
Debris
Shape & HBR
Unknown shape, 0.1 m
Radar Cross Section
Small (<0.1 m²)

Expand to show TLE details & history
Last TLE update: 2 days ago

TLE from 2 days ago
0 COSMOS 2251 DEB
1 40238U 93036BVT 26119.98452291  .00001901  00000-0  19491-2 0  9994
2 40238  73.9914 211.1992 0547713 156.9048 205.7718 13.25591262558685
Epoch: 2026-04-29T23:37Z
TLE epoch observation values (Epoch: 2026-04-29T23:37:42.779Z)
Latitude
-0.00005°
Longitude
-1.1667°
Altitude
1,541.942 km
Speed
6.917 km/s
True Right ascension
14h 04m 47s
True Declination
0° 00' 00"
Sunlit
Object was in full shadow at epoch
Visualization orbit readout
Latitude
Unknown
Longitude
Unknown
Altitude
Unknown
Speed
Unknown
Apparent Right ascension
Unknown
Apparent Declination
Unknown
Sunlit
N/A
Visualization observer readout
Local Sidereal Time
00:12:42
Azimuth
Unknown
Elevation
Unknown
Doppler factor
Unknown
Orbital elements
Apogee altitude
1,574.118 km
Perigee altitude
748.242 km
Semi-major axis
7,539.317 km
Eccentricity
0.05477
Inclination
73.9914°
RAAN
211.1992°
Arg. of periapsis
156.9048°
True anomaly
203.20259°
Mean anomaly
205.7718°
Eccentric anomaly
204.47183°
Mean motion
3.31547 °/min
Orbital period
108.58 mins
BSTAR
0.0019491
Loading maneuver chart data...
Computing Atmospheric mass density...

Documentation

Showing up to 5 results
|